Goodland, KS

10:12 AM MDT on July 22, 2017 (GMT -0600)
Renner-Goodland Municipal

Weather History for KGLD - June, 2013

Change the Weather History Date:

Saturday, June 8, 2013

  Actual Average Record
Temperature  
Mean Temperature 66 °F 67 °F  
Max Temperature 78 °F 81 °F 102 °F (1985)
Min Temperature 53 °F 54 °F 37 °F (2007)
Degree Days  
Heating Degree Days 0 2  
Month to date heating degree days 31 20  
Since 1 June heating degree days 31 20  
Since 1 July heating degree days 5985 5886  
Cooling Degree Days 1 4  
Month to date cooling degree days 10 28  
Year to date cooling degree days 99 69  
Since 1 June cooling degree days 10 28  
Growing Degree Days 16 (Base 50)    
Moisture  
Dew Point 51 °F    
Average Humidity 55    
Maximum Humidity 78    
Minimum Humidity 31    
Precipitation  
Precipitation T in 0.11 in 3.84 in (1974)
Month to date precipitation 0.87 0.90  
Year to date precipitation 5.23 7.38  
Snow  
Snow 0.00 in 0.00 in - ()
Month to date snowfall 0.0 0.0  
Since 1 June snowfall 0.0 0.0  
Since 1 July snowfall 59.2 35.5  
Snow Depth 0.00 in    
Sea Level Pressure  
Sea Level Pressure 29.72 in    
Wind  
Wind Speed 15 mph (NNE)    
Max Wind Speed 39 mph    
Max Gust Speed 48 mph    
Visibility 10 miles    
Events Rain , Thunderstorm    
T = Trace of Precipitation, MM = Missing Value Source: NWS Daily Summary

Daily Weather History Graph

Daily Weather History Graph

Search for Another Location

Airport or City:

Trip Planner

Search our weather history database for the weather conditions in past years. The results will help you decide how hot, cold, wet, or windy it might be!

Date:

Astronomy

Jun. 08, 2013 Rise Set
Actual Time 5:19 AM MDT 8:12 PM MDT
Civil Twilight 4:47 AM MDT 8:44 PM MDT
Nautical Twilight 4:07 AM MDT 9:24 PM MDT
Astronomical Twilight 3:20 AM MDT 10:11 PM MDT
Moon 5:28 AM MDT (6/8) 8:16 PM MDT (6/8)
Length of Visible Light 15h 56m
Length of Day
14h 52m
New Moon, 0% of the Moon is Illuminated
Jun 8
New Moon
Jun 16
First Quarter
Jun 23
Full
Jun 29
Last Quarter
Jul 8
New

Hourly Weather History & Observations

Time (MDT) Temp. Dew Point Humidity Pressure Visibility Wind Dir Wind Speed Gust Speed Precip Events Conditions
12:53 AM 62.1 °F 55.0 °F 78% 29.70 in 10.0 mi SSW 13.8 mph - N/A   Clear
1:53 AM 63.0 °F 53.1 °F 70% 29.67 in 10.0 mi SW 18.4 mph 32.2 mph N/A   Clear
2:53 AM 63.0 °F 52.0 °F 67% 29.63 in 10.0 mi SW 18.4 mph 27.6 mph N/A   Clear
3:53 AM 63.0 °F 52.0 °F 67% 29.62 in 10.0 mi SSW 12.7 mph - N/A   Mostly Cloudy
4:53 AM 62.1 °F 52.0 °F 70% 29.58 in 10.0 mi SSW 11.5 mph - N/A   Partly Cloudy
5:53 AM 62.1 °F 51.1 °F 67% 29.58 in 10.0 mi SSW 8.1 mph - N/A   Clear
6:53 AM 60.1 °F 54.0 °F 80% 29.61 in 10.0 mi SE 12.7 mph - N/A   Mostly Cloudy
7:53 AM 64.9 °F 55.0 °F 70% 29.59 in 10.0 mi SSE 15.0 mph - N/A   Clear
8:22 AM 66.2 °F 53.6 °F 64% 29.73 in 10.0 mi South 8.1 mph - N/A Thunderstorm Scattered Clouds
8:37 AM 66.2 °F 53.6 °F 64% 29.75 in 10.0 mi WSW 4.6 mph - N/A   Scattered Clouds
8:53 AM 70.0 °F 54.0 °F 57% 29.64 in 10.0 mi Variable 5.8 mph - N/A   Partly Cloudy
9:53 AM 69.1 °F 54.0 °F 58% 29.66 in 10.0 mi NNW 27.6 mph 36.8 mph N/A   Clear
10:53 AM 73.0 °F 55.0 °F 53% 29.67 in 10.0 mi North 32.2 mph 41.4 mph N/A   Clear
11:53 AM 73.0 °F 52.0 °F 48% 29.69 in 10.0 mi North 31.1 mph 40.3 mph N/A   Clear
12:53 PM 68.0 °F 52.0 °F 56% 29.75 in 10.0 mi North 16.1 mph 28.8 mph 0.00 in Rain Light Rain
1:53 PM 70.0 °F 54.0 °F 57% 29.77 in 10.0 mi North 17.3 mph - 0.00 in   Mostly Cloudy
2:53 PM 73.0 °F 54.0 °F 51% 29.74 in 10.0 mi NE 12.7 mph - 0.00 in   Clear
3:53 PM 77.0 °F 48.9 °F 37% 29.72 in 10.0 mi NNE 17.3 mph 26.5 mph N/A   Partly Cloudy
4:53 PM 78.1 °F 48.9 °F 36% 29.72 in 10.0 mi North 13.8 mph 24.2 mph N/A   Scattered Clouds
5:53 PM 77.0 °F 46.0 °F 33% 29.73 in 10.0 mi North 17.3 mph 25.3 mph N/A   Clear
6:53 PM 75.0 °F 43.0 °F 32% 29.76 in 10.0 mi North 20.7 mph 28.8 mph N/A   Clear
7:53 PM 69.1 °F 51.1 °F 53% 29.83 in 10.0 mi NE 13.8 mph - N/A   Mostly Cloudy
8:53 PM 61.0 °F 52.0 °F 72% 29.86 in 10.0 mi NE 10.4 mph - N/A   Partly Cloudy
9:53 PM 57.9 °F 48.9 °F 72% 29.90 in 10.0 mi North 3.5 mph - N/A   Clear
10:53 PM 57.0 °F 48.0 °F 72% 29.89 in 10.0 mi Calm Calm - N/A   Clear
11:53 PM 55.0 °F 46.9 °F 74% 29.91 in 10.0 mi South 3.5 mph - N/A   Clear